Home   Weather   Surrey   Past weeks

Flag for Canada Past Weather in Surrey, British Columbia, Canada — Yesterday and Last 2 Weeks

Now
41 °F

Quite cool.


Feels Like: 41 °F
Forecast: 29 / 46 °F
Wind: 2 mph from South

Location: P. Meadows Coastal Station

Current Time: Feb 26, 2017 at 1:21:33 pm

Latest Report: Feb 26, 2017 at 12:00 pm


Visibility: N/A

Pressure: 29.76 "Hg

Humidity: 82%

Dew Point: 36 °F

Location of SurreyLocation

Past Weather in Surrey — Graph

°F

Surrey Temperature Yesterday

Maximum temperature yesterday: 41 °F (at 3:00 pm)
Minimum temperature yesterday: 26 °F (at 7:00 am)
Average temperature yesterday: 33 °F

High & Low Weather Summary for the Past Weeks

 TemperatureHumidityPressure
High57 °F (Feb 15, 10:00 pm)100% (Feb 14, 4:00 am)30.55 "Hg (Feb 14, 4:00 am)
Low26 °F (Feb 25, 7:00 am)48% (Feb 24, 5:00 pm)29.28 "Hg (Feb 16, 2:00 am)
Average40 °F87%29.92 "Hg
* Reported Feb 11 12:00 pm — Feb 26 12:00 pm, Surrey, Weather by CustomWeather, © 2017

Note: Actual official high and low records may vary slightly from our data, if they occured in-between our weather recording intervals... More about our weather records

Advertising

Surrey Weather History for the Previous 24 Hours

Scroll right to see more
 ConditionsComfort  
Time TempWeatherWind HumidityBarometerVisibility
12:00 pm
Sun, Feb 26
41 °FQuite cool.2 mph82%29.76 "HgN/A
11:00 am38 °FChilly.2 mph84%29.77 "HgN/A
10:00 am36 °FChilly.1 mph89%29.77 "HgN/A
9:00 am35 °FChilly.No wind87%29.76 "HgN/A
8:00 am33 °FChilly.No wind94%29.76 "HgN/A
7:00 am33 °FChilly.No wind95%29.75 "HgN/A
6:00 am33 °FChilly.1 mph94%29.75 "HgN/A
5:00 am33 °FChilly.2 mph95%29.76 "HgN/A
4:00 am33 °FChilly.2 mph95%29.78 "HgN/A
3:00 am33 °FChilly.3 mph95%29.80 "HgN/A
2:00 am33 °FChilly.3 mph94%29.82 "HgN/A
1:00 am31 °FChilly.5 mph100%29.84 "HgN/A
12:00 am31 °FChilly.3 mph100%29.86 "HgN/A
11:00 pm
Sat, Feb 25
31 °FChilly.1 mph98%29.88 "HgN/A
10:00 pm33 °FChilly.3 mph100%29.91 "HgN/A
9:00 pm34 °FChilly.2 mph92%29.93 "HgN/A
8:00 pm36 °FChilly.5 mph90%29.95 "HgN/A
7:00 pm38 °FChilly.6 mph83%29.98 "HgN/A
6:00 pm36 °FChilly.5 mph87%30.00 "HgN/A
5:00 pm40 °FChilly.2 mph77%30.03 "HgN/A
4:00 pm41 °FQuite cool.3 mph68%30.06 "HgN/A
3:00 pm41 °FQuite cool.5 mph67%30.09 "HgN/A
2:00 pm41 °FQuite cool.3 mph68%30.13 "HgN/A
1:00 pm41 °FQuite cool.2 mph70%30.16 "HgN/A
Weather by CustomWeather, © 2017

See weather overviewHow to use our weather pages